| time (UTC) | temp F | wind direction | speed MPH | gust MPH | rain 1hr in | rain 24hr in | rain mn in | humidity % | barometer mb |
| 20260505230157 | 63 | 184 | 6.0 | 11.0 | 0.00 | 0.00 | 0.00 | 78 | 1013.0 |
| 20260505225653 | 63 | 176 | 3.0 | 13.0 | 0.00 | 0.00 | 0.00 | 78 | 1012.9 |
| 20260505225149 | 63 | 208 | 6.0 | 14.0 | 0.00 | 0.00 | 0.00 | 78 | 1013.0 |
| 20260505224645 | 63 | 126 | 3.0 | 12.0 | 0.00 | 0.00 | 0.00 | 78 | 1012.9 |
| 20260505224144 | 63 | 194 | 13.0 | 13.0 | 0.00 | 0.00 | 0.00 | 77 | 1013.0 |
| 20260505223641 | 63 | 205 | 5.0 | 14.0 | 0.00 | 0.00 | 0.00 | 78 | 1013.1 |
| 20260505223136 | 63 | 182 | 9.0 | 15.0 | 0.00 | 0.00 | 0.00 | 78 | 1013.1 |
| 20260505222633 | 63 | 185 | 5.0 | 12.0 | 0.00 | 0.00 | 0.00 | 77 | 1013.1 |
| 20260505222129 | 64 | 186 | 10.0 | 11.0 | 0.00 | 0.00 | 0.00 | 77 | 1013.1 |
| 20260505221626 | 64 | 181 | 5.0 | 12.0 | 0.00 | 0.00 | 0.00 | 77 | 1013.1 |
| 20260505221123 | 63 | 172 | 6.0 | 14.0 | 0.00 | 0.00 | 0.00 | 78 | 1012.9 |
| 20260505220620 | 63 | 195 | 9.0 | 13.0 | 0.00 | 0.00 | 0.00 | 77 | 1013.0 |
| 20260505220118 | 64 | 184 | 5.0 | 13.0 | 0.00 | 0.00 | 0.00 | 77 | 1013.2 |
| 20260505215615 | 64 | 183 | 8.0 | 13.0 | 0.00 | 0.00 | 0.00 | 77 | 1013.2 |
| 20260505215113 | 64 | 201 | 4.0 | 13.0 | 0.00 | 0.00 | 0.00 | 77 | 1013.3 |
| 20260505214611 | 64 | 216 | 6.0 | 13.0 | 0.00 | 0.00 | 0.00 | 77 | 1013.2 |
| 20260505214108 | 63 | 185 | 7.0 | 11.0 | 0.00 | 0.00 | 0.00 | 79 | 1013.3 |
| 20260505213606 | 62 | 212 | 6.0 | 11.0 | 0.00 | 0.00 | 0.00 | 78 | 1013.2 |
| 20260505213102 | 63 | 218 | 3.0 | 12.0 | 0.00 | 0.00 | 0.00 | 77 | 1013.4 |
| 20260505212558 | 64 | 223 | 9.0 | 12.0 | 0.00 | 0.00 | 0.00 | 76 | 1013.3 |
| 20260505212056 | 64 | 194 | 8.0 | 12.0 | 0.00 | 0.00 | 0.00 | 78 | 1013.4 |
| 20260505211552 | 64 | 199 | 4.0 | 11.0 | 0.00 | 0.00 | 0.00 | 76 | 1013.2 |
| 20260505211049 | 64 | 181 | 7.0 | 11.0 | 0.00 | 0.00 | 0.00 | 76 | 1013.3 |
| 20260505210546 | 64 | 189 | 5.0 | 11.0 | 0.00 | 0.00 | 0.00 | 75 | 1013.2 |
| 20260505210043 | 64 | 201 | 4.0 | 11.0 | 0.00 | 0.00 | 0.00 | 76 | 1013.2 |
| 20260505205541 | 64 | 173 | 6.0 | 12.0 | 0.00 | 0.00 | 0.00 | 76 | 1013.3 |
| 20260505205038 | 64 | 181 | 11.0 | 13.0 | 0.00 | 0.00 | 0.00 | 76 | 1013.4 |
| 20260505204536 | 64 | 166 | 9.0 | 11.0 | 0.00 | 0.00 | 0.00 | 77 | 1013.3 |
| 20260505204033 | 64 | 170 | 7.0 | 9.0 | 0.00 | 0.00 | 0.00 | 76 | 1013.2 |
| 20260505203529 | 64 | 216 | 5.0 | 9.0 | 0.00 | 0.00 | 0.00 | 75 | 1013.4 |
| 20260505203026 | 64 | 217 | 7.0 | 10.0 | 0.00 | 0.00 | 0.00 | 75 | 1013.4 |
| 20260505202522 | 63 | 280 | 4.0 | 10.0 | 0.00 | 0.00 | 0.00 | 76 | 1013.3 |
| 20260505202018 | 63 | 169 | 5.0 | 10.0 | 0.00 | 0.00 | 0.00 | 78 | 1013.4 |
| 20260505201516 | 62 | 169 | 4.0 | 10.0 | 0.00 | 0.00 | 0.00 | 78 | 1013.5 |
| 20260505201013 | 62 | 186 | 5.0 | 11.0 | 0.00 | 0.00 | 0.00 | 79 | 1013.5 |
| 20260505200511 | 61 | 180 | 6.0 | 12.0 | 0.00 | 0.00 | 0.00 | 79 | 1013.7 |
| 20260505200008 | 62 | 172 | 3.0 | 10.0 | 0.00 | 0.00 | 0.00 | 80 | 1013.5 |
| 20260505195504 | 61 | 197 | 6.0 | 11.0 | 0.00 | 0.00 | 0.00 | 79 | 1013.7 |
| 20260505195001 | 61 | 168 | 4.0 | 10.0 | 0.00 | 0.00 | 0.00 | 80 | 1013.7 |
| 20260505194459 | 61 | 178 | 7.0 | 11.0 | 0.00 | 0.00 | 0.00 | 78 | 1013.6 |
| 20260505193958 | 61 | 192 | 6.0 | 10.0 | 0.00 | 0.00 | 0.00 | 79 | 1013.5 |
| 20260505193456 | 61 | 213 | 7.0 | 10.0 | 0.00 | 0.00 | 0.00 | 78 | 1013.6 |
| 20260505192953 | 61 | 221 | 2.0 | 8.0 | 0.00 | 0.00 | 0.00 | 78 | 1013.7 |
| 20260505192452 | 62 | 172 | 6.0 | 9.0 | 0.00 | 0.00 | 0.00 | 77 | 1013.5 |
| 20260505191949 | 62 | 178 | 6.0 | 7.0 | 0.00 | 0.00 | 0.00 | 78 | 1013.7 |
| 20260505191447 | 61 | 174 | 5.0 | 9.0 | 0.00 | 0.00 | 0.00 | 77 | 1013.8 |
| 20260505190944 | 61 | 196 | 2.0 | 11.0 | 0.00 | 0.00 | 0.00 | 77 | 1013.6 |
| 20260505190439 | 62 | 167 | 8.0 | 10.0 | 0.00 | 0.00 | 0.00 | 77 | 1013.6 |
| 20260505185935 | 62 | 173 | 7.0 | 9.0 | 0.00 | 0.00 | 0.00 | 76 | 1013.6 |
| 20260505185433 | 62 | 176 | 4.0 | 8.0 | 0.00 | 0.00 | 0.00 | 76 | 1013.5 |
| 20260505184928 | 61 | 274 | 4.0 | 7.0 | 0.00 | 0.00 | 0.00 | 76 | 1013.6 |
| 20260505184426 | 61 | 180 | 4.0 | 8.0 | 0.00 | 0.00 | 0.00 | 77 | 1013.7 |
| 20260505183922 | 61 | 159 | 3.0 | 6.0 | 0.00 | 0.00 | 0.00 | 78 | 1013.6 |
| 20260505183419 | 60 | 179 | 4.0 | 9.0 | 0.00 | 0.00 | 0.00 | 77 | 1013.7 |
| 20260505182916 | 60 | 162 | 4.0 | 8.0 | 0.00 | 0.00 | 0.00 | 78 | 1013.6 |
| 20260505182412 | 60 | 180 | 7.0 | 9.0 | 0.00 | 0.00 | 0.00 | 77 | 1013.7 |
| 20260505181909 | 60 | 163 | 5.0 | 13.0 | 0.00 | 0.00 | 0.00 | 79 | 1013.7 |
| 20260505181406 | 60 | 159 | 5.0 | 11.0 | 0.00 | 0.00 | 0.00 | 78 | 1013.6 |
| 20260505180903 | 59 | 189 | 2.0 | 11.0 | 0.00 | 0.00 | 0.00 | 77 | 1013.7 |
| 20260505180400 | 60 | 176 | 5.0 | 9.0 | 0.00 | 0.00 | 0.00 | 77 | 1013.8 |
| 20260505175856 | 59 | 197 | 2.0 | 9.0 | 0.00 | 0.00 | 0.00 | 75 | 1013.8 |
| 20260505175353 | 60 | 165 | 5.0 | 9.0 | 0.00 | 0.00 | 0.00 | 79 | 1013.8 |
| 20260505174849 | 59 | 173 | 4.0 | 8.0 | 0.00 | 0.00 | 0.00 | 79 | 1013.8 |
| 20260505174347 | 59 | 165 | 3.0 | 8.0 | 0.00 | 0.00 | 0.00 | 81 | 1013.6 |
| 20260505173842 | 58 | 154 | 4.0 | 7.0 | 0.00 | 0.00 | 0.00 | 79 | 1013.7 |
| 20260505173339 | 58 | 184 | 4.0 | 8.0 | 0.00 | 0.00 | 0.00 | 82 | 1013.8 |
| 20260505172836 | 58 | 152 | 2.0 | 7.0 | 0.00 | 0.00 | 0.00 | 84 | 1013.7 |
| 20260505172334 | 58 | 153 | 4.0 | 5.0 | 0.00 | 0.00 | 0.00 | 81 | 1013.5 |
| 20260505171833 | 58 | 157 | 4.0 | 7.0 | 0.00 | 0.00 | 0.00 | 82 | 1013.5 |
| 20260505171331 | 58 | 184 | 2.0 | 5.0 | 0.00 | 0.00 | 0.00 | 82 | 1013.8 |
| 20260505170827 | 57 | 175 | 4.0 | 6.0 | 0.00 | 0.00 | 0.00 | 81 | 1013.6 |
| 20260505170324 | 57 | 100 | 3.0 | 5.0 | 0.00 | 0.00 | 0.00 | 83 | 1013.7 |
| 20260505165819 | 58 | 151 | 3.0 | 5.0 | 0.00 | 0.00 | 0.00 | 82 | 1013.8 |
| 20260505165315 | 57 | 169 | 3.0 | 6.0 | 0.00 | 0.00 | 0.00 | 80 | 1013.7 |
| 20260505164810 | 57 | 155 | 2.0 | 3.0 | 0.00 | 0.00 | 0.00 | 81 | 1013.8 |
| 20260505164308 | 57 | 92 | 3.0 | 5.0 | 0.00 | 0.00 | 0.00 | 84 | 1013.6 |
| 20260505163806 | 57 | 75 | 3.0 | 7.0 | 0.00 | 0.00 | 0.00 | 83 | 1013.9 |
| 20260505163304 | 57 | 173 | 3.0 | 5.0 | 0.00 | 0.00 | 0.00 | 82 | 1013.8 |
| 20260505162802 | 56 | 89 | 0.0 | 3.0 | 0.00 | 0.00 | 0.00 | 83 | 1013.8 |
| 20260505162258 | 57 | 102 | 3.0 | 5.0 | 0.00 | 0.00 | 0.00 | 84 | 1013.8 |
| 20260505161755 | 56 | 141 | 1.0 | 5.0 | 0.00 | 0.00 | 0.00 | 86 | 1013.7 |
| 20260505161253 | 56 | 114 | 3.0 | 5.0 | 0.00 | 0.00 | 0.00 | 87 | 1013.8 |
| 20260505160750 | 55 | 23 | 2.0 | 3.0 | 0.00 | 0.00 | 0.00 | 88 | 1013.7 |
| 20260505160248 | 55 | 140 | 2.0 | 4.0 | 0.00 | 0.00 | 0.00 | 88 | 1013.9 |
| 20260505153227 | 53 | 100 | 2.0 | 4.0 | 0.00 | 0.00 | 0.00 | 92 | 1013.6 |
| 20260505152724 | 53 | 180 | 2.0 | 4.0 | 0.00 | 0.00 | 0.00 | 93 | 1013.6 |
| 20260505152220 | 53 | 123 | 1.0 | 4.0 | 0.00 | 0.00 | 0.00 | 95 | 1013.7 |
| 20260505151715 | 53 | 142 | 3.0 | 3.0 | 0.00 | 0.00 | 0.00 | 95 | 1013.8 |
| 20260505151213 | 52 | 142 | 0.0 | 3.0 | 0.00 | 0.00 | 0.00 | 96 | 1013.7 |
| 20260505150709 | 52 | 133 | 3.0 | 5.0 | 0.00 | 0.00 | 0.00 | 96 | 1013.4 |
| 20260505150206 | 52 | 123 | 0.0 | 2.0 | 0.00 | 0.00 | 0.00 | 97 | 1013.3 |
| 20260505140639 | 51 | 67 | 3.0 | 4.0 | 0.00 | 0.00 | 0.00 | 98 | 1013.3 |
| 20260505140136 | 50 | 62 | 3.0 | 3.0 | 0.00 | 0.00 | 0.00 | 98 | 1013.2 |
| 20260505124549 | 50 | 121 | 2.0 | 3.0 | 0.00 | 0.00 | 0.00 | 98 | 1012.8 |
| 20260505124045 | 50 | 80 | 0.0 | 3.0 | 0.00 | 0.00 | 0.00 | 98 | 1012.9 |
| 20260505123542 | 50 | 89 | 2.0 | 2.0 | 0.00 | 0.00 | 0.00 | 98 | 1012.9 |
| 20260505123038 | 50 | 95 | 2.0 | 3.0 | 0.00 | 0.00 | 0.00 | 98 | 1013.0 |
| 20260505122535 | 50 | 104 | 0.0 | 3.0 | 0.00 | 0.00 | 0.00 | 98 | 1012.9 |
| 20260505122033 | 50 | 99 | 2.0 | 3.0 | 0.00 | 0.00 | 0.00 | 97 | 1012.9 |
| 20260505121529 | 50 | 173 | 3.0 | 6.0 | 0.00 | 0.00 | 0.00 | 97 | 1012.9 |
| 20260505121026 | 50 | 202 | 2.0 | 6.0 | 0.00 | 0.00 | 0.00 | 98 | 1012.8 |
| 20260505120522 | 50 | 140 | 2.0 | 5.0 | 0.00 | 0.00 | 0.00 | 98 | 1012.8 |
| 20260505120018 | 50 | 140 | 2.0 | 4.0 | 0.00 | 0.00 | 0.00 | 98 | 1012.8 |
| 20260505115513 | 50 | 148 | 2.0 | 3.0 | 0.00 | 0.00 | 0.00 | 98 | 1012.8 |
| 20260505115011 | 50 | 168 | 3.0 | 6.0 | 0.00 | 0.00 | 0.00 | 98 | 1012.6 |
| 20260505114507 | 50 | 160 | 3.0 | 6.0 | 0.00 | 0.00 | 0.00 | 98 | 1013.0 |
| 20260505114003 | 50 | 220 | 4.0 | 6.0 | 0.00 | 0.00 | 0.00 | 98 | 1012.8 |
| 20260505113500 | 50 | 119 | 0.0 | 4.0 | 0.00 | 0.00 | 0.00 | 98 | 1012.8 |
| 20260505112956 | 50 | 222 | 2.0 | 4.0 | 0.00 | 0.00 | 0.00 | 98 | 1012.8 |
| 20260505112453 | 50 | 176 | 2.0 | 4.0 | 0.00 | 0.00 | 0.00 | 98 | 1012.6 |
| 20260505111950 | 50 | 189 | 2.0 | 5.0 | 0.00 | 0.00 | 0.00 | 98 | 1013.0 |
| 20260505111444 | 50 | 134 | 3.0 | 5.0 | 0.00 | 0.00 | 0.00 | 98 | 1012.6 |
| 20260505110941 | 50 | 200 | 5.0 | 5.0 | 0.00 | 0.00 | 0.00 | 98 | 1012.9 |
| 20260505110438 | 50 | 169 | 1.0 | 6.0 | 0.00 | 0.00 | 0.00 | 98 | 1012.6 |
| 20260505101908 | 50 | 146 | 1.0 | 4.0 | 0.00 | 0.00 | 0.00 | 98 | 1012.9 |
| 20260505101403 | 50 | 103 | 0.0 | 4.0 | 0.00 | 0.00 | 0.00 | 98 | 1012.8 |
| 20260505100859 | 50 | 104 | 2.0 | 2.0 | 0.00 | 0.00 | 0.00 | 98 | 1012.8 |
| 20260505100356 | 50 | 98 | 1.0 | 2.0 | 0.00 | 0.00 | 0.00 | 98 | 1012.6 |
| 20260505095851 | 50 | 70 | 1.0 | 3.0 | 0.00 | 0.00 | 0.00 | 98 | 1012.8 |
| 20260505095349 | 50 | 115 | 1.0 | 3.0 | 0.00 | 0.00 | 0.00 | 98 | 1012.6 |
| 20260505094845 | 50 | 116 | 1.0 | 3.0 | 0.00 | 0.00 | 0.00 | 98 | 1012.6 |
| 20260505094342 | 50 | 62 | 2.0 | 3.0 | 0.00 | 0.00 | 0.00 | 97 | 1012.8 |
| 20260505093838 | 50 | 46 | 2.0 | 3.0 | 0.00 | 0.00 | 0.00 | 97 | 1012.9 |
| 20260505093336 | 50 | 65 | 1.0 | 3.0 | 0.00 | 0.00 | 0.00 | 97 | 1012.9 |
| 20260505092833 | 50 | 71 | 2.0 | 3.0 | 0.00 | 0.00 | 0.00 | 97 | 1013.0 |
| 20260505092331 | 50 | 89 | 2.0 | 3.0 | 0.00 | 0.00 | 0.00 | 97 | 1012.9 |
| 20260505091827 | 50 | 70 | 2.0 | 3.0 | 0.00 | 0.00 | 0.00 | 97 | 1012.9 |
| 20260505091326 | 50 | 71 | 2.0 | 3.0 | 0.00 | 0.00 | 0.00 | 97 | 1013.0 |
| 20260505090823 | 50 | 65 | 2.0 | 3.0 | 0.00 | 0.00 | 0.00 | 97 | 1012.9 |
| 20260505090321 | 50 | 61 | 2.0 | 3.0 | 0.00 | 0.00 | 0.00 | 97 | 1013.1 |
| 20260505085818 | 50 | 83 | 3.0 | 3.0 | 0.00 | 0.00 | 0.00 | 97 | 1013.0 |
| 20260505085317 | 50 | 45 | 3.0 | 3.0 | 0.00 | 0.00 | 0.00 | 97 | 1013.1 |
| 20260505084814 | 50 | 78 | 2.0 | 2.0 | 0.00 | 0.00 | 0.00 | 97 | 1013.0 |
| 20260505084312 | 50 | 70 | 2.0 | 2.0 | 0.00 | 0.00 | 0.00 | 97 | 1013.0 |
| 20260505083809 | 50 | 79 | 0.0 | 3.0 | 0.00 | 0.00 | 0.00 | 96 | 1013.1 |
| 20260505083306 | 50 | 32 | 0.0 | 2.0 | 0.00 | 0.00 | 0.00 | 96 | 1013.2 |
| 20260505082802 | 50 | 41 | 2.0 | 3.0 | 0.02 | 0.00 | 0.00 | 96 | 1013.3 |
| 20260505082259 | 50 | 73 | 2.0 | 3.0 | 0.02 | 0.00 | 0.00 | 96 | 1013.2 |
| 20260505081755 | 50 | 22 | 2.0 | 4.0 | 0.00 | 0.00 | 0.00 | 95 | 1013.1 |
| 20260505081252 | 51 | 53 | 3.0 | 3.0 | 0.00 | 0.00 | 0.00 | 95 | 1013.2 |
| 20260505080749 | 51 | 41 | 3.0 | 4.0 | 0.00 | 0.00 | 0.00 | 94 | 1013.1 |
| 20260505080245 | 51 | 190 | 3.0 | 4.0 | 0.00 | 0.00 | 0.00 | 94 | 1013.4 |
| 20260505075740 | 51 | 185 | 1.0 | 6.0 | 0.00 | 0.00 | 0.00 | 94 | 1013.2 |
| 20260505075238 | 51 | 288 | 3.0 | 5.0 | 0.00 | 0.00 | 0.00 | 95 | 1013.3 |
| 20260505074735 | 50 | 283 | 3.0 | 6.0 | 0.00 | 0.00 | 0.00 | 95 | 1013.3 |
| 20260505074232 | 50 | 180 | 3.0 | 7.0 | 0.00 | 0.00 | 0.00 | 95 | 1013.5 |
| 20260505073730 | 51 | 309 | 0.0 | 1.0 | 0.00 | 0.00 | 0.00 | 95 | 1013.2 |
| 20260505073227 | 50 | 176 | 1.0 | 3.0 | 0.00 | 0.00 | 0.00 | 95 | 1013.1 |
| 20260505072724 | 50 | 184 | 4.0 | 5.0 | 0.00 | 0.00 | 0.00 | 95 | 1013.2 |
| 20260505072220 | 51 | 297 | 0.0 | 1.0 | 0.00 | 0.00 | 0.00 | 95 | 1013.4 |
| 20260505071715 | 51 | 237 | 1.0 | 3.0 | 0.00 | 0.00 | 0.00 | 94 | 1013.4 |
| 20260505071213 | 51 | 242 | 3.0 | 9.0 | 0.00 | 0.00 | 0.00 | 94 | 1013.4 |
| 20260505070710 | 51 | 229 | 5.0 | 9.0 | 0.00 | 0.00 | 0.00 | 95 | 1013.3 |
| 20260505070206 | 51 | 310 | 6.0 | 10.0 | 0.00 | 0.00 | 0.00 | 95 | 1013.3 |
| 20260505065702 | 51 | 133 | 3.0 | 10.0 | 0.00 | 0.01 | 0.01 | 94 | 1013.2 |
| 20260505065159 | 51 | 180 | 7.0 | 9.0 | 0.00 | 0.01 | 0.01 | 95 | 1013.3 |
| 20260505064656 | 51 | 224 | 3.0 | 10.0 | 0.00 | 0.01 | 0.01 | 95 | 1013.1 |
| 20260505064154 | 51 | 307 | 8.0 | 10.0 | 0.02 | 0.01 | 0.01 | 95 | 1013.2 |
| 20260505063651 | 51 | 213 | 1.0 | 5.0 | 0.00 | 0.01 | 0.01 | 95 | 1013.0 |
| 20260505063147 | 51 | 222 | 10.0 | 13.0 | 0.02 | 0.01 | 0.01 | 96 | 1013.1 |
| 20260505062643 | 52 | 128 | 4.0 | 5.0 | 0.02 | 0.01 | 0.01 | 96 | 1013.3 |
| 20260505062141 | 52 | 240 | 3.0 | 6.0 | 0.00 | 0.00 | 0.00 | 95 | 1013.3 |
| 20260505061638 | 52 | 70 | 3.0 | 4.0 | 0.00 | 0.00 | 0.00 | 94 | 1013.3 |
| 20260505061137 | 52 | 187 | 2.0 | 4.0 | 0.00 | 0.00 | 0.00 | 94 | 1013.5 |
| 20260505060633 | 52 | 234 | 2.0 | 4.0 | 0.00 | 0.00 | 0.00 | 93 | 1013.1 |
| 20260505060130 | 52 | 307 | 2.0 | 5.0 | 0.00 | 0.00 | 0.00 | 94 | 1013.3 |
| 20260505055625 | 52 | 174 | 0.0 | 4.0 | 0.00 | 0.00 | 0.00 | 94 | 1013.0 |
| 20260505055122 | 52 | 235 | 5.0 | 6.0 | 0.00 | 0.00 | 0.00 | 94 | 1013.0 |
| 20260505054620 | 52 | 155 | 2.0 | 6.0 | 0.00 | 0.00 | 0.00 | 93 | 1012.9 |
| 20260505054118 | 52 | 208 | 5.0 | 9.0 | 0.00 | 0.00 | 0.00 | 93 | 1013.0 |
| 20260505053615 | 52 | 273 | 6.0 | 7.0 | 0.00 | 0.00 | 0.00 | 93 | 1013.0 |
| 20260505053111 | 53 | 227 | 3.0 | 9.0 | 0.00 | 0.00 | 0.00 | 93 | 1013.0 |
| 20260505052608 | 53 | 275 | 5.0 | 13.0 | 0.00 | 0.00 | 0.00 | 92 | 1012.9 |
| 20260505052106 | 52 | 229 | 11.0 | 16.0 | 0.00 | 0.00 | 0.00 | 92 | 1013.1 |
| 20260505051602 | 52 | 192 | 9.0 | 14.0 | 0.00 | 0.00 | 0.00 | 93 | 1013.1 |
| 20260505051101 | 53 | 269 | 7.0 | 13.0 | 0.00 | 0.00 | 0.00 | 93 | 1013.1 |
| 20260505050558 | 53 | 200 | 9.0 | 17.0 | 0.00 | 0.00 | 0.00 | 93 | 1013.0 |
| 20260505041526 | 54 | 223 | 5.0 | 11.0 | 0.00 | 0.00 | 0.00 | 94 | 1012.4 |
| 20260505041023 | 54 | 229 | 11.0 | 14.0 | 0.00 | 0.00 | 0.00 | 93 | 1012.4 |
| 20260505040520 | 54 | 282 | 4.0 | 8.0 | 0.00 | 0.00 | 0.00 | 92 | 1012.5 |
| 20260505040018 | 54 | 264 | 4.0 | 9.0 | 0.00 | 0.00 | 0.00 | 92 | 1012.6 |
| 20260505035514 | 55 | 199 | 7.0 | 15.0 | 0.00 | 0.00 | 0.00 | 91 | 1012.4 |
| 20260505035011 | 55 | 242 | 8.0 | 11.0 | 0.00 | 0.00 | 0.00 | 91 | 1012.3 |
| 20260505034507 | 55 | 221 | 4.0 | 6.0 | 0.00 | 0.00 | 0.00 | 92 | 1012.2 |
| 20260505034004 | 54 | 168 | 2.0 | 7.0 | 0.00 | 0.00 | 0.00 | 92 | 1012.1 |
| 20260505033501 | 54 | 150 | 0.0 | 4.0 | 0.00 | 0.00 | 0.00 | 94 | 1012.0 |
| 20260505032959 | 54 | 210 | 2.0 | 5.0 | 0.00 | 0.00 | 0.00 | 94 | 1011.8 |
| 20260505032456 | 54 | 233 | 3.0 | 5.0 | 0.00 | 0.00 | 0.00 | 94 | 1011.6 |
| 20260505031953 | 54 | 248 | 3.0 | 6.0 | 0.00 | 0.00 | 0.00 | 92 | 1011.7 |
| 20260505031449 | 54 | 236 | 8.0 | 10.0 | 0.00 | 0.00 | 0.00 | 92 | 1011.5 |
| 20260505030946 | 54 | 205 | 6.0 | 7.0 | 0.00 | 0.00 | 0.00 | 92 | 1011.6 |
| 20260505030442 | 55 | 231 | 3.0 | 8.0 | 0.00 | 0.00 | 0.00 | 92 | 1011.6 |
| 20260505025938 | 54 | 298 | 4.0 | 8.0 | 0.00 | 0.00 | 0.00 | 93 | 1011.2 |
| 20260505025435 | 54 | 220 | 3.0 | 8.0 | 0.00 | 0.00 | 0.00 | 93 | 1011.2 |
| 20260505024934 | 55 | 264 | 7.0 | 11.0 | 0.00 | 0.00 | 0.00 | 93 | 1011.1 |
| 20260505024431 | 55 | 237 | 8.0 | 11.0 | 0.00 | 0.00 | 0.00 | 92 | 1011.3 |
| 20260505023928 | 55 | 224 | 9.0 | 10.0 | 0.00 | 0.00 | 0.00 | 93 | 1011.0 |
| 20260505023425 | 55 | 219 | 8.0 | 11.0 | 0.00 | 0.00 | 0.00 | 93 | 1011.5 |
| 20260505022922 | 55 | 266 | 5.0 | 5.0 | 0.00 | 0.00 | 0.00 | 92 | 1011.6 |
| 20260505022420 | 55 | 301 | 2.0 | 4.0 | 0.00 | 0.00 | 0.00 | 92 | 1011.7 |
| 20260505021917 | 55 | 279 | 6.0 | 9.0 | 0.00 | 0.00 | 0.00 | 92 | 1011.6 |
| 20260505021413 | 55 | 260 | 3.0 | 7.0 | 0.00 | 0.00 | 0.00 | 92 | 1011.5 |
| 20260505020909 | 55 | 243 | 5.0 | 12.0 | 0.00 | 0.00 | 0.00 | 92 | 1011.3 |
| 20260505020404 | 55 | 240 | 5.0 | 15.0 | 0.00 | 0.00 | 0.00 | 92 | 1011.1 |
| 20260505015901 | 55 | 268 | 8.0 | 14.0 | 0.00 | 0.00 | 0.00 | 91 | 1011.0 |
| 20260505015359 | 55 | 261 | 8.0 | 12.0 | 0.00 | 0.00 | 0.00 | 91 | 1010.8 |
| 20260505014856 | 55 | 258 | 5.0 | 11.0 | 0.00 | 0.00 | 0.00 | 91 | 1010.8 |
| 20260505014353 | 55 | 206 | 3.0 | 12.0 | 0.00 | 0.00 | 0.00 | 91 | 1011.0 |
| 20260505013849 | 55 | 208 | 9.0 | 10.0 | 0.00 | 0.00 | 0.00 | 90 | 1011.1 |
| 20260505013346 | 56 | 199 | 5.0 | 9.0 | 0.00 | 0.00 | 0.00 | 90 | 1011.0 |
| 20260505012845 | 56 | 226 | 7.0 | 8.0 | 0.00 | 0.00 | 0.00 | 90 | 1011.1 |
| 20260505012343 | 56 | 210 | 2.0 | 4.0 | 0.00 | 0.00 | 0.00 | 90 | 1011.0 |
| 20260505011838 | 56 | 187 | 4.0 | 9.0 | 0.00 | 0.00 | 0.00 | 90 | 1011.0 |
| 20260505011335 | 56 | 227 | 4.0 | 7.0 | 0.00 | 0.00 | 0.00 | 89 | 1011.1 |
| 20260505010831 | 56 | 149 | 2.0 | 5.0 | 0.00 | 0.00 | 0.00 | 89 | 1011.4 |
| 20260505010327 | 57 | 233 | 3.0 | 8.0 | 0.00 | 0.00 | 0.00 | 88 | 1011.5 |
| 20260505005824 | 57 | 186 | 3.0 | 7.0 | 0.00 | 0.00 | 0.00 | 88 | 1011.7 |
| 20260505005321 | 57 | 227 | 4.0 | 8.0 | 0.00 | 0.00 | 0.00 | 88 | 1011.5 |
| 20260505004818 | 57 | 303 | 2.0 | 3.0 | 0.00 | 0.00 | 0.00 | 87 | 1011.3 |
| 20260505004314 | 57 | 210 | 8.0 | 9.0 | 0.00 | 0.00 | 0.00 | 87 | 1011.3 |
| 20260505003812 | 57 | 228 | 7.0 | 8.0 | 0.00 | 0.00 | 0.00 | 86 | 1011.2 |
| 20260505003309 | 57 | 247 | 7.0 | 11.0 | 0.00 | 0.00 | 0.00 | 86 | 1011.2 |
| 20260505002805 | 57 | 292 | 2.0 | 9.0 | 0.00 | 0.00 | 0.00 | 86 | 1011.4 |
| 20260505002304 | 57 | 193 | 2.0 | 9.0 | 0.00 | 0.00 | 0.00 | 86 | 1011.5 |
| 20260505001800 | 57 | 197 | 5.0 | 9.0 | 0.00 | 0.00 | 0.00 | 85 | 1011.5 |
| 20260505001257 | 57 | 240 | 3.0 | 11.0 | 0.00 | 0.00 | 0.00 | 85 | 1011.8 |
| 20260505000754 | 57 | 296 | 5.0 | 8.0 | 0.00 | 0.00 | 0.00 | 85 | 1011.8 |
| 20260505000252 | 57 | 217 | 6.0 | 11.0 | 0.00 | 0.00 | 0.00 | 85 | 1011.6 |
| 20260504235748 | 57 | 228 | 6.0 | 8.0 | 0.00 | 0.00 | 0.00 | 85 | 1011.4 |
| 20260504235244 | 57 | 265 | 7.0 | 7.0 | 0.00 | 0.00 | 0.00 | 85 | 1011.5 |
| 20260504234742 | 57 | 251 | 4.0 | 9.0 | 0.00 | 0.00 | 0.00 | 85 | 1011.6 |
| 20260504234239 | 57 | 197 | 5.0 | 6.0 | 0.00 | 0.00 | 0.00 | 86 | 1011.3 |
| 20260504233736 | 57 | 212 | 3.0 | 11.0 | 0.00 | 0.00 | 0.00 | 85 | 1011.2 |
| 20260504233231 | 58 | 183 | 3.0 | 10.0 | 0.00 | 0.00 | 0.00 | 85 | 1011.5 |
| 20260504232729 | 58 | 190 | 5.0 | 10.0 | 0.00 | 0.00 | 0.00 | 85 | 1011.7 |
| 20260504232226 | 58 | 198 | 4.0 | 11.0 | 0.00 | 0.00 | 0.00 | 84 | 1011.6 |
| 20260504231722 | 58 | 214 | 4.0 | 9.0 | 0.00 | 0.00 | 0.00 | 84 | 1011.6 |
| 20260504231219 | 58 | 171 | 7.0 | 9.0 | 0.00 | 0.00 | 0.00 | 84 | 1011.5 |
| 20260504230715 | 58 | 218 | 7.0 | 10.0 | 0.00 | 0.00 | 0.00 | 83 | 1011.4 |